Jendouba, Tunisia

4:32 PM CET on October 19, 2019 (GMT +0100)
Jendouba

Weather History for DTTN - August, 2019

Change the Weather History Date:

Thursday, August 22, 2019

  Actual Average Record
Temperature  
Mean Temperature 84 °F -  
Max Temperature 100 °F 91 °F - ()
Min Temperature 69 °F 63 °F - ()
Cooling Degree Days 20    
Growing Degree Days 34 (Base 50)    
Moisture  
Dew Point 66 °F    
Average Humidity 60    
Maximum Humidity 94    
Minimum Humidity 25    
Precipitation  
Precipitation 0.24 in 0.04 in - ()
Sea Level Pressure  
Sea Level Pressure 29.99 in    
Wind  
Wind Speed 6 mph ()    
Max Wind Speed 26 mph    
Max Gust Speed 47 mph    
Visibility 6.2 miles    
Events Rain , Thunderstorm    
T = Trace of Precipitation, MM = Missing Value Source: Averaged Metar Reports

Daily Weather History Graph

Daily Weather History Graph

Search for Another Location

Airport or City:

Astronomy

Aug. 22, 2019 Rise Set
Actual Time 5:47 AM CET 7:07 PM CET
Civil Twilight 5:20 AM CET 7:34 PM CET
Nautical Twilight 4:48 AM CET 8:06 PM CET
Astronomical Twilight 4:14 AM CET 8:39 PM CET
Moon 10:58 PM CET (8/22) 11:56 AM CET (8/22)
Length of Visible Light 14h 13m
Length of Day
13h 19m
Waning Gibbous, 62% of the Moon is Illuminated
Aug 22
Waning Gibbous
Aug 23
Last Quarter
Aug 30
New
Sep 6
First Quarter
Sep 14
Full

Hourly Weather History & Observations

Time (CET) Temp. Heat Index Dew Point Humidity Pressure Visibility Wind Dir Wind Speed Gust Speed Precip Events Conditions
12:00 AM 80.6 °F 82.7 °F 66.2 °F 61% 30.01 in - ENE 5.8 mph - N/A   Unknown
1:00 AM 79 °F - 66 °F 55% 30.00 in 5 mi NE 4.6 mph - -   Clear
1:00 AM 78.8 °F - 66.2 °F 65% 29.98 in 5.0 mi NE 4.6 mph - N/A   Unknown
2:00 AM 77.0 °F - 66.2 °F 69% 29.98 in 5.0 mi ENE 9.2 mph - N/A   Unknown
4:00 AM 75 °F - 65 °F 64% 29.98 in 5 mi ENE 6.9 mph - -   Clear
4:00 AM 75.2 °F - 64.4 °F 69% 29.98 in 5.0 mi ENE 6.9 mph - N/A   Unknown
5:00 AM 73.4 °F - 66.2 °F 78% 29.95 in - ENE 6.9 mph - N/A   Clear
7:00 AM 75 °F - 66 °F 67% 29.99 in 9 mi ENE 4.6 mph - -   Clear
7:00 AM 75.2 °F - 66.2 °F 73% 29.98 in - ENE 4.6 mph - N/A   Clear
8:00 AM 78.8 °F - 66.2 °F 65% 29.98 in - NE 4.6 mph - N/A   Clear
9:00 AM 82.4 °F 85.4 °F 68.0 °F 62% 30.01 in - ENE 3.5 mph - N/A   Clear
10:00 AM 86 °F - 67 °F 43% 30.00 in 9 mi NE 4.6 mph - -   Clear
10:00 AM 86.0 °F 88.2 °F 66.2 °F 51% 29.98 in - NE 4.6 mph - N/A   Clear
11:00 AM 89.6 °F 92.2 °F 66.2 °F 46% 29.98 in - East 4.6 mph - N/A   Clear
12:00 PM 93.2 °F 94.9 °F 64.4 °F 38% 29.98 in - East 3.5 mph - N/A   Clear
1:00 PM 96 °F - 64 °F 25% 29.94 in 9 mi North 3.5 mph - -   Scattered Clouds
1:00 PM 95.0 °F 97.0 °F 64.4 °F 36% 29.98 in 6.2 mi North 3.5 mph - N/A   Partly Cloudy
4:00 PM 99 °F - 66 °F 25% 29.89 in 9 mi NNE 4.6 mph - -   Partly Cloudy
4:00 PM 100.4 °F 101.3 °F 60.8 °F 27% 29.92 in 6.2 mi NNE 4.6 mph - N/A   Scattered Clouds
6:00 PM 86.0 °F 89.4 °F 68.0 °F 55% 29.98 in 6.2 mi NW 10.4 mph - N/A Thunderstorm Thunderstorm
7:00 PM 81 °F - 67 °F 53% 30.03 in 6 mi SW 26.5 mph - - Thunderstorm Thunderstorm
7:00 PM 82.4 °F 84.6 °F 66.2 °F 58% 30.04 in 6.2 mi WSW 23.0 mph 47.2 mph N/A Thunderstorm Thunderstorm
8:00 PM 69.8 °F - 68.0 °F 94% 30.09 in 5.0 mi SSW 12.7 mph - N/A Rain , Thunderstorm Rain Showers
9:00 PM 71.6 °F - 69.8 °F 94% 30.04 in 5.0 mi East 6.9 mph - N/A Thunderstorm Thunderstorm
10:00 PM 72 °F - 69 °F 88% 30.04 in 5 mi NNW 6.9 mph - - Thunderstorm Light Thunderstorm
10:00 PM 71.6 °F - 69.8 °F 94% 30.04 in 5.0 mi NNW 6.9 mph - N/A   Scattered Clouds